Location: Santa Cristina
(46.5667°N, 11.7167°E)
Time: 18:06:06
(UTC+00:00)

Gbstr 26 Del rocket - Pass Details

Date: 21 April 2021
Orbit: 493 x 1263 km, 51.8° (Epoch: 11 May)

Event Time Altitude Azimuth Distance (km) Brightness Sun altitude
Exits shadow 03:29:15 - 285° (WNW) 3,507 6.5 -8.1°
Rises 03:29:18 0° 286° (WNW) 3,493 6.5 -8.1°
Reaches altitude 10° 03:32:10 10° 291° (WNW) 2,416 5.7 -7.7°
Maximum altitude 03:37:31 48° 6° (N) 907 4.2 -6.9°
Drops below altitude 10° 03:41:53 10° 82° (E) 1,969 7.1 -6.2°
Sets 03:44:01 0° 88° (E) 2,785 7.9 -5.8°
